Cardak, Turkey

8:00 PM +03 on September 25, 2017 (GMT +0300)
Cardak Air Base

Weather History for LTAY - September, 2017

Change the Weather History Date:

Thursday, September 14, 2017

  Actual Average Record
Temperature  
Mean Temperature 70 °F -  
Max Temperature 89 °F - - ()
Min Temperature 51 °F - - ()
Cooling Degree Days 5    
Growing Degree Days 20 (Base 50)    
Moisture  
Dew Point 46 °F    
Average Humidity 43    
Maximum Humidity 67    
Minimum Humidity 15    
Precipitation  
Precipitation 0.00 in - - ()
Sea Level Pressure  
Sea Level Pressure 29.98 in    
Wind  
Wind Speed 5 mph ()    
Max Wind Speed 16 mph    
Max Gust Speed -    
Visibility 6.2 miles    
Events      
T = Trace of Precipitation, MM = Missing Value Source: Averaged Metar Reports

Daily Weather History Graph

Daily Weather History Graph

Search for Another Location

Airport or City:

Trip Planner

Search our weather history database for the weather conditions in past years. The results will help you decide how hot, cold, wet, or windy it might be!

Date:

Astronomy

Sep. 14, 2017 Rise Set
Actual Time 6:42 AM +03 7:10 PM +03
Civil Twilight 6:15 AM +03 7:36 PM +03
Nautical Twilight 5:44 AM +03 8:07 PM +03
Astronomical Twilight 5:13 AM +03 8:39 PM +03
Moon 12:25 AM +03 (9/14) 3:03 PM +03 (9/14)
Length of Visible Light 13h 21m
Length of Day
12h 28m
Last Quarter, 38% of the Moon is Illuminated
Sep 14
Last Quarter
Sep 20
New
Sep 28
First Quarter
Oct 5
Full
Oct 12
Last Quarter

Hourly Weather History & Observations

Time (+03) Temp. Dew Point Humidity Pressure Visibility Wind Dir Wind Speed Gust Speed Precip Events Conditions
12:50 AM 60.8 °F 42.8 °F 52% 30.06 in - SW 8.1 mph - N/A   Clear
1:50 AM 60.8 °F 42.8 °F 52% 30.06 in - WSW 4.6 mph - N/A   Clear
2:50 AM 57.2 °F 42.8 °F 59% 30.04 in - West 4.6 mph - N/A   Clear
3:50 AM 59.0 °F 42.8 °F 55% 30.04 in - Variable 2.3 mph - N/A   Clear
4:50 AM 55.4 °F 41.0 °F 58% 30.04 in - Calm Calm - N/A   Clear
5:50 AM 57.2 °F 41.0 °F 55% 30.04 in - Calm Calm - N/A   Clear
6:50 AM 51.8 °F 41.0 °F 67% 30.04 in - Variable 1.2 mph - N/A   Clear
7:50 AM 59.0 °F 44.6 °F 59% 30.04 in - Calm Calm - N/A   Clear
8:50 AM 68.0 °F 48.2 °F 49% 30.01 in - Variable 1.2 mph - N/A   Clear
9:50 AM 69.8 °F 48.2 °F 46% 30.01 in - Variable 1.2 mph - N/A   Clear
10:50 AM 75.2 °F 48.2 °F 38% 30.01 in - East 5.8 mph - N/A   Clear
11:50 AM 78.8 °F 48.2 °F 34% 29.98 in - East 3.5 mph - N/A   Clear
12:50 PM 84.2 °F 48.2 °F 29% 29.98 in - ENE 5.8 mph - N/A   Clear
2:50 PM 89.6 °F 35.6 °F 15% 29.92 in - NNE 5.8 mph - N/A   Clear
3:50 PM 89.6 °F 46.4 °F 22% 29.92 in 6.2 mi West 11.5 mph - N/A   Partly Cloudy
4:50 PM 87.8 °F 44.6 °F 22% 29.89 in 6.2 mi West 16.1 mph - N/A   Partly Cloudy
5:50 PM 84.2 °F 46.4 °F 27% 29.89 in - WNW 16.1 mph - N/A   Clear
6:50 PM 82.4 °F 46.4 °F 28% 29.92 in - WNW 13.8 mph - N/A   Clear
7:50 PM 77.0 °F 50.0 °F 39% 29.92 in - West 8.1 mph - N/A   Clear
8:50 PM 73.4 °F 50.0 °F 44% 29.95 in - West 4.6 mph - N/A   Clear
9:50 PM 73.4 °F 51.8 °F 47% 29.95 in - West 6.9 mph - N/A   Clear
10:50 PM 71.6 °F 51.8 °F 50% 29.95 in - West 6.9 mph - N/A   Clear